Weather History for KFTY - February, 2013

Change the Weather History Date:

Thursday, February 21, 2013

  Actual Average Record
Temperature  
Mean Temperature 48 °F 48 °F  
Max Temperature 64 °F 59 °F - ()
Min Temperature 32 °F 36 °F - ()
Degree Days  
Heating Degree Days 17 18  
Month to date heating degree days 409  
Since 1 July heating degree days 2225  
Moisture  
Dew Point 22 °F    
Average Humidity 37    
Maximum Humidity 80    
Minimum Humidity 18    
Precipitation  
Precipitation 0.09 in 0.18 in - ()
Month to date precipitation 3.54  
Year to date precipitation 7.81  
Sea Level Pressure  
Sea Level Pressure 30.09 in    
Wind  
Wind Speed 4 mph (ENE)    
Max Wind Speed 9 mph    
Max Gust Speed 18 mph    
Visibility 10 miles    
Events Rain    
T = Trace of Precipitation, MM = Missing Value Source: NWS Daily Summary

Daily Weather History Graph

Daily Weather History Graph

Search for Another Location

Airport or City:

Trip Planner

Search our weather history database for the weather conditions in past years. The results will help you decide how hot, cold, wet, or windy it might be!

Date:

Astronomy

Feb. 21, 2013 Rise Set
Actual Time 7:15 AM EST 6:28 PM EST
Civil Twilight 6:50 AM EST 6:53 PM EST
Nautical Twilight 6:21 AM EST 7:22 PM EST
Astronomical Twilight 5:52 AM EST 7:51 PM EST
Moon 2:49 PM EST (2/21) 4:12 AM EST (2/21)
Length of Visible Light 12h 02m
Length of Day
11h 12m
Waxing Gibbous, 83% of the Moon is Illuminated
Feb 21
Waxing Gibbous
Feb 25
Full
Mar 4
Last Quarter
Mar 11
New
Mar 19
First Quarter

Hourly Weather History & Observations

Time (EST) Temp. Windchill Dew Point Humidity Pressure Visibility Wind Dir Wind Speed Gust Speed Precip Events Conditions
12:53 AM 39.0 °F 36.8 °F 14.0 °F 36% 30.14 in 10.0 mi NNW 3.5 mph - N/A   Mostly Cloudy
1:53 AM 37.0 °F - 17.1 °F 44% 30.14 in 10.0 mi Calm Calm - N/A   Scattered Clouds
2:53 AM 37.0 °F 34.5 °F 16.0 °F 42% 30.12 in 10.0 mi NNW 3.5 mph - N/A   Partly Cloudy
3:53 AM 35.1 °F 31.0 °F 19.0 °F 52% 30.13 in 10.0 mi NW 4.6 mph - N/A   Scattered Clouds
4:53 AM 35.6 °F - 17.6 °F 48% 30.11 in 10.0 mi Calm Calm - N/A   Clear
5:53 AM 33.8 °F 30.8 °F 17.6 °F 52% 30.13 in 10.0 mi NNE 3.5 mph - N/A   Clear
6:53 AM 33.1 °F - 17.1 °F 52% 30.17 in 10.0 mi Calm Calm - N/A   Clear
7:53 AM 32.0 °F 28.7 °F 21.0 °F 64% 30.18 in 10.0 mi North 3.5 mph - N/A   Clear
8:53 AM 37.9 °F - 19.9 °F 48% 30.19 in 10.0 mi Calm Calm - N/A   Clear
9:53 AM 45.0 °F 42.6 °F 18.0 °F 34% 30.19 in 10.0 mi NE 4.6 mph - N/A   Clear
10:53 AM 51.1 °F - 17.1 °F 26% 30.17 in 10.0 mi NE 5.8 mph - N/A   Clear
11:53 AM 54.0 °F - 16.0 °F 22% 30.14 in 10.0 mi Variable 3.5 mph - N/A   Clear
12:53 PM 59.0 °F - 16.0 °F 19% 30.11 in 10.0 mi Variable 6.9 mph - N/A   Clear
1:53 PM 62.1 °F - 18.0 °F 18% 30.06 in 10.0 mi ESE 4.6 mph - N/A   Clear
2:53 PM 63.0 °F - 21.0 °F 20% 30.05 in 10.0 mi SE 5.8 mph - N/A   Clear
3:53 PM 64.0 °F - 21.9 °F 20% 30.01 in 10.0 mi SE 9.2 mph 18.4 mph N/A   Clear
4:53 PM 63.0 °F - 23.0 °F 22% 29.99 in 10.0 mi ESE 5.8 mph - N/A   Clear
5:53 PM 62.1 °F - 24.1 °F 23% 29.98 in 10.0 mi SE 6.9 mph - N/A   Partly Cloudy
6:53 PM 62.1 °F - 25.0 °F 24% 29.97 in 10.0 mi East 5.8 mph - N/A   Mostly Cloudy
7:53 PM 61.0 °F - 27.0 °F 27% 30.00 in 10.0 mi ESE 5.8 mph - 0.00 in   Overcast
8:53 PM 61.0 °F - 28.0 °F 29% 30.02 in 10.0 mi ESE 3.5 mph - N/A   Overcast
9:53 PM 59.0 °F - 33.1 °F 38% 30.05 in 10.0 mi East 3.5 mph - 0.00 in   Overcast
10:53 PM 57.9 °F - 33.1 °F 39% 30.02 in 10.0 mi ENE 9.2 mph - N/A   Overcast
11:53 PM 48.9 °F - 43.0 °F 80% 30.10 in 6.0 mi NNE 8.1 mph - 0.09 in Rain Light Rain